This is the latest recevied weather packets stored in our database for station/object WB4ZUT. If no packets are shown the sender has not sent any weather packets the latest 10 day(s).
| Time | Temp. | Humidity | Pressure | Rain* | Wind** | Luminosity | Snow |
|---|---|---|---|---|---|---|---|
| 1778094793 | 16.11° C | 61% | 1014.7 hPa | 0 mm | - | 439 W/m² | - |
| 1778094490 | 16.11° C | 60% | 1014.8 hPa | 0 mm | - | 580 W/m² | - |
| 1778094186 | 16.11° C | 58% | 1015 hPa | 0 mm | - | 558 W/m² | - |
| 1778093883 | 16.67° C | 62% | 1014.9 hPa | 0 mm | - | 551 W/m² | - |
| 1778093580 | 16.11° C | 57% | 1014.9 hPa | 0 mm | - | 727 W/m² | - |
| 1778093277 | 16.11° C | 57% | 1015 hPa | 0 mm | - | 562 W/m² | - |
| 1778092974 | 16.67° C | 60% | 1014.8 hPa | 0 mm | - | 726 W/m² | - |
| 1778092671 | 16.11° C | 61% | 1014.9 hPa | 0 mm | - | 745 W/m² | - |
| 1778092372 | 16.67° C | 59% | 1014.8 hPa | 0 mm | - | 517 W/m² | - |
| 1778092069 | 16.67° C | 58% | 1014.8 hPa | 0 mm | - | 500 W/m² | - |
| 1778091766 | 16.67° C | 61% | 1015 hPa | 0 mm | - | 783 W/m² | - |
| 1778091464 | 16.11° C | 58% | 1014.9 hPa | 0 mm | - | 884 W/m² | - |
| 1778091162 | 16.67° C | 58% | 1014.7 hPa | 0 mm | - | 494 W/m² | - |
| 1778090859 | 16.11° C | 63% | 1014.8 hPa | 0 mm | - | 735 W/m² | - |
| 1778090554 | 16.67° C | 61% | 1014.8 hPa | 0 mm | - | 638 W/m² | - |
| 1778090251 | 16.11° C | 61% | 1015 hPa | 0 mm | - | 786 W/m² | - |
| 1778089948 | 15.56° C | 62% | 1014.8 hPa | 0 mm | - | 750 W/m² | - |
| 1778089645 | 16.11° C | 63% | 1014.6 hPa | 0 mm | - | 691 W/m² | - |
| 1778089342 | 15° C | 63% | 1014.7 hPa | 0 mm | - | 727 W/m² | - |
| 1778089040 | 15° C | 65% | 1014.8 hPa | 0 mm | - | 765 W/m² | - |
| 1778088736 | 15° C | 65% | 1014.9 hPa | 0 mm | - | 369 W/m² | - |
| 1778088433 | 15.56° C | 61% | 1015 hPa | 0 mm | - | 744 W/m² | - |
| 1778088130 | 15° C | 67% | 1014.7 hPa | 0 mm | - | 803 W/m² | - |
| 1778087828 | 15° C | 62% | 1014.9 hPa | 0 mm | - | 442 W/m² | - |
| 1778087525 | 15.56° C | 66% | 1015.1 hPa | 0 mm | - | 508 W/m² | - |
* Rain latest hour (hover to see other rain measurements)
** Current wind speed in m/s (hover to see current wind gust speed)